AAL1754 KDFW-KEGE

Flight info

Callsign AAL1754
Flight time N/A
Altitude 38000
Route LOWGN8 ADM KF30C MMB UPIRE LPINE VAAIL1
Aircraft A319/M-SDE3FGHIRWY/LB1

Departure

Time N/A
Airport Dallas Fort Worth International Airport (KDFW)

Arrival

Time 2026-04-22 17:12
Airport Eagle County Regional Airport (KEGE)
Time Latitude Longitude Altitude Speed Heading
2026-04-22 16:50 40.06735 -104.80669 37812 ft 442 kts 281°
2026-04-22 16:51 40.08136 -104.88487 37850 ft 442 kts 281°
2026-04-22 16:51 40.09539 -104.96286 37881 ft 440 kts 281°
2026-04-22 16:52 40.10929 -105.04056 37895 ft 439 kts 281°
2026-04-22 16:52 40.12308 -105.11826 37118 ft 443 kts 281°
2026-04-22 16:52 40.13005 -105.15785 36126 ft 451 kts 281°
2026-04-22 16:53 40.13626 -105.19814 35245 ft 454 kts 275°
2026-04-22 16:53 40.13766 -105.23927 34409 ft 455 kts 265°
2026-04-22 16:53 40.13566 -105.28073 33498 ft 459 kts 265°
2026-04-22 16:53 40.13353 -105.32246 32517 ft 462 kts 265°
2026-04-22 16:54 40.13138 -105.36452 31552 ft 465 kts 265°
2026-04-22 16:54 40.12922 -105.40672 30596 ft 467 kts 265°
2026-04-22 16:54 40.12706 -105.44887 30065 ft 460 kts 265°
2026-04-22 16:54 40.12496 -105.48992 29936 ft 444 kts 265°
2026-04-22 16:55 40.12293 -105.52952 29791 ft 429 kts 265°
2026-04-22 16:55 40.12093 -105.56769 29698 ft 415 kts 265°
2026-04-22 16:55 40.11895 -105.60494 29422 ft 407 kts 265°
2026-04-22 16:55 40.11699 -105.64160 29022 ft 402 kts 265°
2026-04-22 16:56 40.11514 -105.67789 28565 ft 399 kts 265°
2026-04-22 16:56 40.11339 -105.71389 28147 ft 395 kts 265°
2026-04-22 16:56 40.11167 -105.74959 27757 ft 392 kts 265°
2026-04-22 16:56 40.10996 -105.78499 27330 ft 389 kts 265°
2026-04-22 16:57 40.10822 -105.82013 26864 ft 385 kts 265°
2026-04-22 16:57 40.10631 -105.85548 25538 ft 397 kts 265°
2026-04-22 16:57 40.10444 -105.89106 25164 ft 384 kts 265°
2026-04-22 16:57 40.10273 -105.92500 25013 ft 365 kts 265°
2026-04-22 16:58 40.10113 -105.95751 24598 ft 355 kts 265°
2026-04-22 16:58 40.09952 -105.98960 24175 ft 352 kts 265°
2026-04-22 16:58 40.09788 -106.02134 23721 ft 348 kts 265°
2026-04-22 16:58 40.09626 -106.05233 23162 ft 347 kts 265°
2026-04-22 16:59 40.09462 -106.08366 22685 ft 344 kts 265°
2026-04-22 16:59 40.09299 -106.11474 22211 ft 342 kts 265°
2026-04-22 16:59 40.09137 -106.14559 21725 ft 340 kts 265°
2026-04-22 16:59 40.08958 -106.17624 21275 ft 337 kts 261°
2026-04-22 17:00 40.08349 -106.20554 20839 ft 334 kts 248°
2026-04-22 17:00 40.06663 -106.26168 19980 ft 330 kts 248°
2026-04-22 17:00 40.05825 -106.28951 19565 ft 328 kts 248°
2026-04-22 17:01 40.04992 -106.31718 19155 ft 326 kts 248°
2026-04-22 17:01 40.04164 -106.34465 18749 ft 324 kts 248°
2026-04-22 17:01 40.03353 -106.37155 18543 ft 315 kts 248°
2026-04-22 17:01 40.02551 -106.39809 18213 ft 314 kts 248°
2026-04-22 17:02 40.01715 -106.42431 17854 ft 312 kts 241°
2026-04-22 17:02 40.00331 -106.44558 17481 ft 308 kts 219°
2026-04-22 17:02 39.98631 -106.46258 17103 ft 308 kts 217°
2026-04-22 17:02 39.96926 -106.47934 16762 ft 306 kts 217°
2026-04-22 17:03 39.95251 -106.49573 16619 ft 295 kts 217°
2026-04-22 17:03 39.93628 -106.51162 16249 ft 290 kts 217°
2026-04-22 17:03 39.92013 -106.52747 15737 ft 291 kts 217°
2026-04-22 17:03 39.90400 -106.54331 15235 ft 290 kts 217°
2026-04-22 17:04 39.88799 -106.55901 14907 ft 286 kts 217°
2026-04-22 17:04 39.87210 -106.57452 14536 ft 282 kts 217°
2026-04-22 17:04 39.85686 -106.58952 14412 ft 269 kts 218°
2026-04-22 17:04 39.84181 -106.60439 13846 ft 276 kts 218°
2026-04-22 17:05 39.82566 -106.61685 13657 ft 264 kts 199°
2026-04-22 17:05 39.80814 -106.62096 13543 ft 250 kts 189°
2026-04-22 17:05 39.79106 -106.62379 13123 ft 250 kts 188°
2026-04-22 17:05 39.77358 -106.62678 12515 ft 259 kts 188°
2026-04-22 17:06 39.75569 -106.62952 12159 ft 249 kts 188°
2026-04-22 17:06 39.73923 -106.63204 12018 ft 230 kts 188°
2026-04-22 17:06 39.72361 -106.63455 11746 ft 223 kts 188°
2026-04-22 17:06 39.70867 -106.63724 11547 ft 209 kts 193°
2026-04-22 17:07 39.69615 -106.64475 11445 ft 192 kts 217°
2026-04-22 17:07 39.68702 -106.65705 11159 ft 183 kts 232°
2026-04-22 17:07 39.67962 -106.66945 10915 ft 167 kts 232°
2026-04-22 17:07 39.67273 -106.68088 10691 ft 156 kts 232°
2026-04-22 17:08 39.66745 -106.69305 10512 ft 155 kts 249°
2026-04-22 17:08 39.66551 -106.70680 10287 ft 155 kts 261°
2026-04-22 17:08 39.66406 -106.72061 10021 ft 154 kts 260°
2026-04-22 17:08 39.66256 -106.73432 9755 ft 153 kts 260°
2026-04-22 17:09 39.66107 -106.74792 9479 ft 151 kts 261°
2026-04-22 17:09 39.65959 -106.76150 9252 ft 152 kts 261°
2026-04-22 17:09 39.65812 -106.77497 9045 ft 151 kts 261°
2026-04-22 17:09 39.65667 -106.78822 8867 ft 148 kts 259°
2026-04-22 17:10 39.65521 -106.80148 8668 ft 148 kts 260°
2026-04-22 17:10 39.65377 -106.81467 8397 ft 146 kts 258°
2026-04-22 17:10 39.65236 -106.82765 8078 ft 145 kts 259°
2026-04-22 17:10 39.65099 -106.84035 7739 ft 140 kts 259°
2026-04-22 17:11 39.64961 -106.85287 7480 ft 143 kts 260°
2026-04-22 17:11 39.64824 -106.86590 7293 ft 142 kts 261°
2026-04-22 17:11 39.64708 -106.87820 7137 ft 139 kts 260°
2026-04-22 17:11 39.64557 -106.89056 6825 ft 138 kts 258°
2026-04-22 17:12 39.64430 -106.90255 6594 ft 131 kts 255°
2026-04-22 17:12 39.64305 -106.91335 6527 ft 93 kts 262°
2026-04-22 17:12 39.64229 -106.92012 6497 ft 57 kts 263°
2026-04-22 17:12 39.64198 -106.92252 6493 ft 17 kts 237°
2026-04-22 17:13 39.64101 -106.92235 6493 ft 16 kts 108°
2026-04-22 17:13 39.64108 -106.92123 6500 ft 11 kts 83°
2026-04-22 17:13 39.64117 -106.92037 6504 ft 9 kts 82°
2026-04-22 17:13 39.64129 -106.91938 6510 ft 13 kts 82°
2026-04-22 17:14 39.64147 -106.91774 6516 ft 21 kts 80°
2026-04-22 17:14 39.64160 -106.91603 6525 ft 17 kts 104°
2026-04-22 17:14 39.64115 -106.91513 6528 ft 11 kts 94°
2026-04-22 17:14 39.64081 -106.91486 6527 ft 5 kts 170°
2026-04-22 17:15 39.64065 -106.91483 6527 ft 0 kts 172°
2026-04-22 17:15 39.64060 -106.91482 6527 ft 0 kts 173°